CW3077 Weather Reports


Display with metric or nautical units.
time (UTC)temp
F
wind
direction
speed
MPH
gust
MPH
rain 1hr
in
rain 24hr
in
rain mn
in
humidity
%
barometer
mb
20260508014516 62 68 3.0 8.0 0.00 0.00 0.00 77 1015.3
20260508014016 62 68 2.0 5.0 0.00 0.00 0.00 76 1015.6
20260508013516 62 68 2.0 4.0 0.00 0.00 0.00 76 1015.3
20260508013016 63 90 3.0 6.0 0.00 0.00 0.00 75 1015.1
20260508012516 63 68 3.0 7.0 0.00 0.00 0.00 75 1015.1
20260508012016 63 90 5.0 9.0 0.00 0.00 0.00 75 1015.0
20260508011516 63 68 5.0 10.0 0.00 0.00 0.00 74 1014.9
20260508011016 63 68 4.0 9.0 0.00 0.00 0.00 74 1015.1
20260508010516 63 90 3.0 7.0 0.00 0.00 0.00 74 1015.3
20260508010056 63 68 5.0 10.0 0.00 0.00 0.00 73 1015.4
20260508005516 63 45 3.0 5.0 0.00 0.00 0.00 73 1015.9
20260508005016 63 45 3.0 8.0 0.00 0.00 0.00 73 1016.2
20260508004516 64 45 4.0 8.0 0.00 0.00 0.00 72 1015.8
20260508004016 64 90 4.0 8.0 0.00 0.00 0.00 71 1015.7
20260508003516 64 68 4.0 8.0 0.00 0.00 0.00 71 1015.5
20260508003036 64 68 3.0 8.0 0.00 0.00 0.00 71 1015.7
20260508002516 64 90 4.0 8.0 0.00 0.00 0.00 70 1015.6
20260508002016 64 90 4.0 9.0 0.00 0.00 0.00 70 1016.0
20260508001556 64 68 3.0 5.0 0.00 0.00 0.00 70 1016.1
20260508001016 64 68 2.0 5.0 0.00 0.00 0.00 71 1016.7
20260508000516 65 45 3.0 6.0 0.00 0.00 0.00 68 1016.4
20260508000016 65 45 3.0 8.0 0.00 0.00 0.00 68 1016.5
20260507235516 65 45 4.0 9.0 0.00 0.00 0.00 69 1016.9
20260507235016 65 68 3.0 6.0 0.00 0.00 0.00 69 1017.0
20260507234536 65 68 3.0 5.0 0.00 0.00 0.00 68 1016.7
20260507234036 65 68 2.0 4.0 0.00 0.00 0.00 69 1016.6
20260507233516 65 68 2.0 4.0 0.00 0.00 0.00 68 1016.6
20260507233016 65 68 1.0 4.0 0.00 0.00 0.00 68 1016.7
20260507232516 65 68 1.0 4.0 0.00 0.00 0.00 67 1016.7
20260507232016 65 45 5.0 10.0 0.00 0.00 0.00 65 1016.3
20260507231516 65 45 5.0 9.0 0.00 0.00 0.00 66 1016.1
20260507231016 66 68 4.0 10.0 0.00 0.00 0.00 66 1016.5
20260507230516 65 23 5.0 9.0 0.00 0.00 0.00 66 1016.6
20260507230016 65 45 5.0 11.0 0.00 0.00 0.00 66 1016.5
20260507225536 65 23 5.0 10.0 0.00 0.00 0.00 66 1016.6
20260507225016 66 23 5.0 10.0 0.00 0.00 0.00 67 1016.5
20260507224516 66 45 3.0 8.0 0.00 0.00 0.00 67 1016.5
20260507224036 66 45 4.0 8.0 0.00 0.00 0.00 68 1016.8
20260507223516 65 23 4.0 8.0 0.00 0.00 0.00 67 1016.8
20260507223016 65 45 2.0 6.0 0.00 0.00 0.00 69 1016.8
20260507222516 65 23 4.0 8.0 0.00 0.00 0.00 68 1016.8
20260507222016 65 0 3.0 6.0 0.00 0.00 0.00 69 1016.6
20260507221516 65 0 5.0 10.0 0.00 0.00 0.00 68 1017.0
20260507221016 65 0 5.0 10.0 0.00 0.00 0.00 69 1017.1
20260507220536 65 0 6.0 13.0 0.00 0.00 0.00 68 1017.4
20260507220016 65 23 5.0 9.0 0.00 0.00 0.00 68 1017.3
20260507215516 65 23 4.0 12.0 0.00 0.00 0.00 68 1017.3
20260507215016 66 23 4.0 9.0 0.00 0.00 0.00 68 1017.6
20260507214516 66 45 3.0 6.0 0.00 0.00 0.00 67 1017.9
20260507214016 66 23 4.0 9.0 0.00 0.00 0.00 65 1017.7
20260507213516 67 68 4.0 11.0 0.00 0.00 0.00 66 1017.8
20260507213016 66 23 5.0 10.0 0.00 0.00 0.00 66 1017.6
20260507212516 66 23 4.0 9.0 0.00 0.00 0.00 69 1017.6
20260507212016 65 0 6.0 11.0 0.00 0.00 0.00 69 1017.2
20260507211536 65 45 5.0 9.0 0.00 0.00 0.00 69 1017.1
20260507211016 66 68 5.0 9.0 0.00 0.00 0.00 68 1016.8
20260507210516 65 45 3.0 8.0 0.00 0.00 0.00 69 1017.4
20260507210015 65 23 6.0 11.0 0.00 0.00 0.00 70 1017.4
20260507205516 65 23 5.0 9.0 0.00 0.00 0.00 70 1017.4
20260507205036 65 45 6.0 11.0 0.00 0.00 0.00 69 1017.7
20260507204516 65 23 4.0 9.0 0.00 0.00 0.00 69 1018.0
20260507204036 65 23 4.0 9.0 0.00 0.00 0.00 70 1018.1
20260507203516 65 45 3.0 8.0 0.00 0.00 0.00 69 1017.9
20260507203016 66 45 2.0 4.0 0.00 0.00 0.00 69 1018.1
20260507202516 65 45 6.0 12.0 0.00 0.00 0.00 67 1018.1
20260507202056 65 45 4.0 9.0 0.00 0.00 0.00 70 1018.2
20260507201516 65 45 5.0 11.0 0.00 0.00 0.00 70 1018.2
20260507201036 65 23 5.0 9.0 0.00 0.00 0.00 70 1017.9
20260507200516 64 23 4.0 9.0 0.00 0.00 0.00 70 1018.2
20260507200015 64 45 4.0 8.0 0.00 0.00 0.00 70 1017.9
20260507195515 64 23 6.0 11.0 0.00 0.00 0.00 70 1018.2
20260507195016 64 23 6.0 12.0 0.00 0.00 0.00 70 1018.3
20260507194516 64 23 4.0 9.0 0.00 0.00 0.00 71 1018.4
20260507194036 64 45 5.0 10.0 0.00 0.00 0.00 71 1018.7
20260507193515 64 23 4.0 10.0 0.00 0.00 0.00 71 1018.6
20260507193016 64 23 5.0 9.0 0.00 0.00 0.00 71 1018.6
20260507192516 64 45 4.0 10.0 0.00 0.00 0.00 71 1018.5
20260507192036 64 23 4.0 9.0 0.00 0.00 0.00 70 1018.6
20260507191515 64 68 4.0 8.0 0.00 0.00 0.00 71 1018.6
20260507191036 63 45 5.0 9.0 0.00 0.00 0.00 72 1018.6
20260507190556 63 68 5.0 10.0 0.00 0.00 0.00 72 1018.7
20260507190016 63 45 6.0 11.0 0.00 0.00 0.00 72 1018.4
20260507185515 63 23 8.0 13.0 0.00 0.00 0.00 71 1018.2
20260507185036 63 68 6.0 12.0 0.00 0.00 0.00 71 1018.2
20260507184515 63 90 5.0 10.0 0.00 0.00 0.00 71 1018.6
20260507184035 63 45 4.0 11.0 0.00 0.00 0.00 72 1018.5
20260507183515 63 45 6.0 14.0 0.00 0.00 0.00 73 1018.6
20260507183016 63 45 8.0 14.0 0.00 0.00 0.00 72 1018.3
20260507182556 63 68 7.0 15.0 0.00 0.00 0.00 72 1018.3
20260507182015 63 45 7.0 13.0 0.00 0.00 0.00 72 1018.7
20260507181515 63 45 6.0 12.0 0.00 0.00 0.00 72 1018.4
20260507181021 63 23 9.0 15.0 0.00 0.00 0.00 71 1018.5
20260507180556 64 45 6.0 12.0 0.00 0.00 0.00 72 1018.8
20260507180036 64 45 6.0 11.0 0.00 0.00 0.00 71 1019.3
20260507175516 64 23 7.0 13.0 0.00 0.00 0.00 70 1019.5
20260507175015 64 23 9.0 17.0 0.00 0.00 0.00 71 1018.8
20260507174556 65 23 9.0 16.0 0.00 0.00 0.00 70 1018.5
20260507174015 65 45 6.0 11.0 0.00 0.00 0.00 73 1018.7
20260507173536 63 23 7.0 14.0 0.00 0.00 0.00 77 1018.7
20260507173016 62 45 7.0 12.0 0.00 0.00 0.00 80 1018.9
20260507172516 61 45 5.0 11.0 0.00 0.00 0.00 84 1019.1
20260507172015 60 45 4.0 8.0 0.00 0.00 0.00 83 1018.9
20260507171515 60 23 7.0 12.0 0.00 0.00 0.00 83 1018.9
20260507171016 60 68 4.0 11.0 0.00 0.00 0.00 84 1018.4
20260507170535 59 68 6.0 11.0 0.00 0.00 0.00 85 1017.9
20260507170015 59 68 5.0 13.0 0.00 0.00 0.00 85 1018.2
20260507165535 59 45 6.0 12.0 0.00 0.00 0.00 85 1018.4
20260507165015 59 23 8.0 15.0 0.00 0.00 0.00 85 1018.9
20260507164515 59 23 6.0 11.0 0.00 0.00 0.00 84 1019.0
20260507164015 59 0 4.0 9.0 0.00 0.00 0.00 84 1020.1
20260507163535 59 45 5.0 9.0 0.00 0.00 0.00 83 1019.3
20260507163015 59 45 4.0 8.0 0.00 0.00 0.00 82 1019.6
20260507162515 59 0 3.0 9.0 0.00 0.00 0.00 83 1020.6
20260507162015 59 338 2.0 9.0 0.00 0.00 0.00 83 1021.4
20260507161515 59 23 3.0 7.0 0.00 0.00 0.00 82 1021.3
20260507161015 59 68 4.0 9.0 0.00 0.00 0.00 82 1020.2
20260507160515 59 45 7.0 13.0 0.00 0.00 0.00 82 1019.5
20260507160015 59 23 5.0 10.0 0.00 0.00 0.00 82 1020.4
20260507155515 59 23 5.0 10.0 0.00 0.00 0.00 82 1020.0
20260507155015 58 23 3.0 9.0 0.00 0.00 0.00 82 1020.2
20260507154515 58 23 5.0 13.0 0.00 0.00 0.00 82 1020.1
20260507154015 58 23 6.0 12.0 0.00 0.00 0.00 82 1019.7
20260507153515 58 23 5.0 11.0 0.00 0.00 0.00 82 1019.8
20260507153015 58 23 8.0 14.0 0.00 0.00 0.00 82 1019.4
20260507152515 58 23 7.0 15.0 0.00 0.00 0.00 83 1019.9
20260507152015 58 23 3.0 9.0 0.00 0.00 0.00 83 1021.0
20260507151515 58 23 5.0 15.0 0.00 0.00 0.00 83 1020.3
20260507151015 59 23 6.0 12.0 0.00 0.00 0.00 82 1020.0
20260507150535 58 0 5.0 11.0 0.00 0.00 0.00 82 1020.1
20260507150015 58 45 5.0 12.0 0.00 0.00 0.00 83 1019.6
20260507145535 58 23 5.0 12.0 0.00 0.00 0.00 83 1019.8
20260507145015 58 23 8.0 12.0 0.00 0.00 0.00 83 1019.9
20260507144515 58 23 6.0 14.0 0.00 0.00 0.00 84 1020.0
20260507144015 58 23 8.0 16.0 0.00 0.00 0.00 84 1019.7
20260507143535 58 23 10.0 18.0 0.00 0.00 0.00 85 1019.1
20260507143035 58 23 7.0 16.0 0.00 0.00 0.00 86 1019.5
20260507142535 58 23 7.0 13.0 0.00 0.00 0.00 86 1019.5
20260507142015 58 23 7.0 16.0 0.00 0.00 0.00 86 1019.3
20260507141535 58 23 9.0 19.0 0.00 0.00 0.00 88 1019.4
20260507141015 58 23 9.0 16.0 0.00 0.00 0.00 88 1019.6
20260507140536 58 23 7.0 13.0 0.00 0.00 0.00 88 1019.4
20260507140015 58 23 9.0 16.0 0.00 0.00 0.00 88 1019.4
20260507135515 58 23 7.0 13.0 0.00 0.00 0.00 88 1019.3
20260507135015 58 23 9.0 18.0 0.00 0.00 0.00 89 1019.2
20260507134515 58 0 8.0 15.0 0.00 0.00 0.00 89 1019.0
20260507134015 58 23 8.0 14.0 0.00 0.00 0.00 89 1018.9
20260507133515 58 23 9.0 14.0 0.00 0.00 0.00 89 1018.9
20260507133015 57 23 8.0 16.0 0.00 0.00 0.00 89 1018.8
20260507132535 57 23 8.0 15.0 0.00 0.00 0.00 89 1019.0
20260507132015 57 23 8.0 16.0 0.00 0.00 0.00 89 1019.2
20260507131517 57 23 6.0 12.0 0.00 0.00 0.00 89 1019.1
20260507131037 57 23 5.0 10.0 0.00 0.00 0.00 89 1019.1
20260507130517 57 23 8.0 13.0 0.00 0.00 0.00 89 1019.1
20260507130017 57 23 7.0 13.0 0.00 0.00 0.00 89 1019.1
20260507125517 57 23 8.0 14.0 0.00 0.00 0.00 89 1018.9
20260507125017 57 23 6.0 11.0 0.00 0.00 0.00 89 1018.9
20260507124517 57 23 8.0 15.0 0.00 0.00 0.00 89 1019.0
20260507124017 57 0 5.0 13.0 0.00 0.00 0.00 89 1019.1
20260507123517 57 23 5.0 11.0 0.00 0.00 0.00 89 1019.1
20260507123017 57 23 9.0 15.0 0.00 0.00 0.00 89 1019.1
20260507122557 57 23 7.0 16.0 0.00 0.00 0.00 89 1019.0
20260507122037 57 23 7.0 14.0 0.00 0.00 0.00 89 1018.9
20260507121517 57 0 10.0 16.0 0.00 0.00 0.00 89 1018.4
20260507121017 57 0 8.0 17.0 0.00 0.00 0.00 89 1018.2
20260507120537 58 23 8.0 17.0 0.00 0.00 0.00 89 1017.9
20260507120017 58 23 6.0 14.0 0.00 0.00 0.00 89 1018.1
20260507115517 58 23 8.0 16.0 0.00 0.00 0.00 89 1017.9
20260507115017 58 23 8.0 16.0 0.00 0.00 0.00 89 1017.8
20260507114516 58 23 9.0 16.0 0.00 0.00 0.00 89 1018.0
20260507114016 58 23 7.0 15.0 0.00 0.00 0.00 89 1018.2
20260507113517 58 23 5.0 13.0 0.00 0.00 0.00 89 1018.2
20260507113017 58 0 6.0 11.0 0.00 0.00 0.00 89 1018.2
20260507112537 58 0 5.0 11.0 0.00 0.00 0.00 89 1018.3
20260507112016 58 23 7.0 16.0 0.00 0.00 0.00 89 1018.2
20260507111516 58 23 7.0 14.0 0.00 0.00 0.00 89 1018.0
20260507111017 58 23 8.0 15.0 0.00 0.00 0.00 89 1017.9
20260507110517 58 23 9.0 19.0 0.00 0.00 0.00 89 1018.0
20260507110017 58 23 9.0 15.0 0.00 0.00 0.00 89 1017.9
20260507105517 58 23 9.0 16.0 0.00 0.00 0.00 89 1017.9
20260507105016 58 23 9.0 18.0 0.00 0.00 0.00 89 1018.1
20260507104516 58 23 6.0 16.0 0.00 0.00 0.00 89 1018.0
20260507104057 58 23 6.0 13.0 0.00 0.00 0.00 89 1018.1
20260507103516 58 23 10.0 16.0 0.00 0.00 0.00 89 1017.3
20260507103037 58 23 9.0 13.0 0.00 0.00 0.00 89 1017.3
20260507102516 58 23 9.0 19.0 0.00 0.00 0.00 89 1017.4
20260507102016 58 23 9.0 19.0 0.00 0.00 0.00 88 1017.8
20260507101517 58 23 7.0 14.0 0.00 0.00 0.00 89 1018.0
20260507101016 58 23 5.0 11.0 0.00 0.00 0.00 89 1017.6
20260507100516 58 23 7.0 14.0 0.00 0.00 0.00 88 1017.2
20260507100017 58 23 7.0 13.0 0.00 0.00 0.00 88 1017.6
20260507095517 58 23 5.0 11.0 0.00 0.00 0.00 88 1017.5
20260507095017 58 23 5.0 11.0 0.00 0.00 0.00 88 1017.8
20260507094516 58 23 5.0 9.0 0.00 0.00 0.00 88 1017.7
20260507094016 58 23 3.0 9.0 0.00 0.00 0.00 88 1017.3
20260507093517 58 45 5.0 11.0 0.00 0.00 0.00 88 1017.2
20260507093016 58 23 6.0 13.0 0.00 0.00 0.00 88 1017.1
20260507092517 58 45 5.0 12.0 0.00 0.00 0.00 88 1017.3
20260507092016 58 23 4.0 11.0 0.00 0.00 0.00 88 1017.3
20260507091517 58 23 5.0 13.0 0.00 0.00 0.00 88 1017.3
20260507091016 58 23 6.0 12.0 0.00 0.00 0.00 88 1016.9
20260507090516 58 23 4.0 8.0 0.00 0.00 0.00 88 1016.9
20260507090016 58 23 5.0 12.0 0.00 0.00 0.00 88 1016.6
20260507085516 58 45 4.0 10.0 0.00 0.00 0.00 88 1016.6
20260507085016 58 23 5.0 10.0 0.00 0.00 0.00 88 1016.3
20260507084516 58 45 3.0 6.0 0.00 0.00 0.00 88 1016.7
20260507084016 58 23 4.0 9.0 0.00 0.00 0.00 88 1016.7
20260507083536 58 23 6.0 11.0 0.00 0.00 0.00 88 1016.4
20260507083016 58 23 6.0 14.0 0.00 0.00 0.00 88 1016.4
20260507082516 58 45 3.0 10.0 0.00 0.00 0.00 88 1016.6
20260507082016 58 23 5.0 10.0 0.00 0.00 0.00 86 1016.5
20260507081517 58 45 5.0 11.0 0.00 0.00 0.00 86 1016.3
20260507081016 58 23 8.0 15.0 0.00 0.00 0.00 86 1016.3
20260507080516 58 45 4.0 12.0 0.00 0.00 0.00 86 1016.3
20260507080016 58 45 7.0 13.0 0.00 0.00 0.00 86 1016.0
20260507075517 59 45 7.0 14.0 0.00 0.00 0.00 86 1015.9
20260507075016 59 45 7.0 14.0 0.00 0.00 0.00 86 1015.8
20260507074516 59 45 5.0 11.0 0.00 0.00 0.00 86 1016.5
20260507074016 59 45 7.0 13.0 0.00 0.00 0.00 86 1016.3
20260507073516 59 23 7.0 14.0 0.00 0.00 0.00 85 1016.1
20260507073036 59 23 8.0 15.0 0.00 0.00 0.00 85 1015.7
20260507072516 59 45 4.0 10.0 0.00 0.00 0.00 85 1015.9
20260507072016 59 45 6.0 11.0 0.00 0.00 0.00 85 1015.9
20260507071516 59 45 5.0 11.0 0.00 0.00 0.00 85 1016.3
20260507071016 59 23 4.0 8.0 0.00 0.00 0.00 85 1016.4
20260507070636 59 45 5.0 11.0 0.00 0.00 0.00 85 1016.2
20260507070016 59 45 5.0 12.0 0.00 0.00 0.00 84 1016.3
20260507065516 59 68 4.0 12.0 0.00 0.00 0.00 84 1016.4
20260507065016 59 45 6.0 12.0 0.00 0.00 0.00 84 1016.1
20260507064516 60 45 7.0 14.0 0.00 0.00 0.00 84 1015.8
20260507064016 60 45 6.0 14.0 0.00 0.00 0.00 84 1016.0
20260507063516 60 45 5.0 11.0 0.00 0.00 0.00 83 1016.3
20260507063016 60 45 6.0 14.0 0.00 0.00 0.00 83 1016.4
20260507062516 60 45 6.0 12.0 0.00 0.00 0.00 83 1016.3
20260507062016 60 45 6.0 15.0 0.00 0.00 0.00 83 1016.1
20260507061516 60 45 5.0 14.0 0.00 0.00 0.00 82 1016.3
20260507061016 60 45 4.0 10.0 0.00 0.00 0.00 82 1016.8
20260507060516 60 45 4.0 9.0 0.00 0.00 0.00 82 1016.8
20260507060036 60 23 5.0 13.0 0.00 0.00 0.00 82 1016.6
20260507055516 60 23 5.0 12.0 0.00 0.00 0.00 82 1016.3
20260507055016 60 45 5.0 12.0 0.00 0.00 0.00 82 1016.1
20260507054516 60 23 4.0 11.0 0.00 0.00 0.00 82 1016.1
20260507054016 60 45 5.0 12.0 0.00 0.00 0.00 81 1016.0
20260507053516 60 45 7.0 11.0 0.00 0.00 0.00 81 1015.9
20260507053016 61 45 7.0 12.0 0.00 0.00 0.00 81 1016.1
20260507052516 61 23 7.0 14.0 0.00 0.00 0.00 81 1016.0
20260507052016 61 23 8.0 14.0 0.00 0.00 0.00 82 1016.1
20260507051536 61 68 6.0 14.0 0.00 0.00 0.00 82 1016.1
20260507051016 61 45 8.0 15.0 0.00 0.00 0.00 82 1016.0
20260507050516 61 23 9.0 15.0 0.00 0.00 0.00 82 1016.2
20260507050016 61 23 7.0 12.0 0.00 0.00 0.00 82 1016.3
20260507045517 61 23 8.0 13.0 0.00 0.00 0.00 82 1016.1
20260507045017 61 45 6.0 11.0 0.00 0.00 0.00 82 1016.1
20260507044516 61 45 5.0 11.0 0.00 0.00 0.00 82 1016.3
20260507044017 61 45 7.0 15.0 0.00 0.00 0.00 82 1016.1
20260507043517 61 23 6.0 12.0 0.00 0.00 0.00 81 1016.3
20260507043037 61 23 9.0 16.0 0.00 0.00 0.00 81 1016.1
20260507042517 61 23 8.0 15.0 0.00 0.00 0.00 81 1016.0
20260507042017 61 23 8.0 13.0 0.00 0.00 0.00 81 1016.1
20260507041516 61 23 6.0 12.0 0.00 0.00 0.00 81 1016.2
20260507041017 61 23 6.0 13.0 0.00 0.00 0.00 81 1016.1
20260507040557 61 23 5.0 10.0 0.00 0.00 0.00 81 1016.1
20260507040016 61 23 5.0 10.0 0.00 0.00 0.00 81 1016.2
20260507035517 61 23 7.0 15.0 0.00 0.00 0.00 81 1016.3
20260507035157 61 45 6.0 11.0 0.00 0.00 0.00 82 1016.1
20260507034537 61 45 6.0 12.0 0.00 0.00 0.00 82 1016.1
20260507034017 61 23 6.0 13.0 0.00 0.00 0.00 82 1015.8
20260507033516 61 23 6.0 12.0 0.00 0.00 0.00 83 1016.0
20260507033017 61 23 6.0 13.0 0.00 0.00 0.00 83 1015.8
20260507032516 61 23 8.0 12.0 0.00 0.00 0.00 83 1015.9
20260507032016 61 23 5.0 12.0 0.00 0.00 0.00 83 1015.9
20260507031557 61 23 7.0 11.0 0.00 0.00 0.00 84 1015.9
20260507031016 61 0 5.0 12.0 0.00 0.00 0.00 84 1015.5
20260507030516 61 23 5.0 13.0 0.00 0.00 0.00 84 1015.5
20260507030016 61 23 5.0 10.0 0.00 0.00 0.00 83 1015.4
20260507025516 61 23 5.0 10.0 0.00 0.00 0.00 83 1015.7
20260507025016 61 23 4.0 10.0 0.00 0.00 0.00 83 1015.9
20260507024516 61 23 3.0 11.0 0.00 0.00 0.00 83 1015.9
20260507024016 61 0 4.0 10.0 0.00 0.00 0.00 83 1015.5
20260507023517 61 23 4.0 11.0 0.00 0.00 0.00 83 1015.4
20260507023016 61 23 6.0 12.0 0.00 0.00 0.00 83 1015.3
20260507022516 61 23 6.0 14.0 0.00 0.00 0.00 83 1015.2
20260507022036 61 0 4.0 11.0 0.00 0.00 0.00 83 1015.2
20260507021517 61 0 3.0 10.0 0.00 0.00 0.00 83 1015.3
20260507021017 61 23 3.0 5.0 0.00 0.00 0.00 83 1015.6
20260507020516 61 23 3.0 10.0 0.00 0.00 0.00 83 1015.3
20260507020016 61 0 4.0 9.0 0.00 0.00 0.00 83 1015.1
20260507015516 61 0 3.0 9.0 0.00 0.00 0.00 83 1015.2
20260507015016 62 23 3.0 10.0 0.00 0.00 0.00 83 1014.9
20260507014557 61 23 3.0 10.0 0.00 0.00 0.00 83 1014.8